EZY1EU EGGP-EGNS

Flight info

Callsign EZY1EU
Flight time 0h 23m
Altitude 16000
Route WAL M146 LUSOD DCT IOM
Aircraft A319/M-SDE3FGHIRWY/LB1

Departure

Time 2026-04-29 16:20
Airport Liverpool John Lennon Airport (EGGP)

Arrival

Time 2026-04-29 16:43
Airport Isle of Man Airport (EGNS)
Time Latitude Longitude Altitude Speed Heading
2026-04-29 16:02 53.33586 -2.85194 89 ft 0 kts 265°
2026-04-29 16:13 53.33587 -2.85173 91 ft 4 kts 265°
2026-04-29 16:14 53.33588 -2.85133 89 ft 2 kts 265°
2026-04-29 16:14 53.33594 -2.85095 91 ft 4 kts 228°
2026-04-29 16:14 53.33615 -2.85074 89 ft 4 kts 187°
2026-04-29 16:14 53.33629 -2.85073 91 ft 3 kts 175°
2026-04-29 16:15 53.33603 -2.85070 92 ft 4 kts 175°
2026-04-29 16:15 53.33598 -2.85069 92 ft 0 kts 175°
2026-04-29 16:16 53.33587 -2.85068 89 ft 4 kts 175°
2026-04-29 16:17 53.33545 -2.85069 91 ft 7 kts 197°
2026-04-29 16:17 53.33518 -2.85185 90 ft 14 kts 265°
2026-04-29 16:17 53.33509 -2.85376 91 ft 19 kts 265°
2026-04-29 16:17 53.33498 -2.85600 90 ft 21 kts 265°
2026-04-29 16:18 53.33487 -2.85853 89 ft 22 kts 265°
2026-04-29 16:18 53.33475 -2.86113 89 ft 23 kts 265°
2026-04-29 16:18 53.33463 -2.86378 89 ft 23 kts 265°
2026-04-29 16:18 53.33448 -2.86632 92 ft 19 kts 257°
2026-04-29 16:19 53.33348 -2.86720 91 ft 18 kts 163°
2026-04-29 16:19 53.33288 -2.86585 90 ft 12 kts 84°
2026-04-29 16:19 53.33291 -2.86513 88 ft 19 kts 85°
2026-04-29 16:19 53.33324 -2.85787 91 ft 102 kts 86°
2026-04-29 16:20 53.33393 -2.84381 499 ft 125 kts 86°
2026-04-29 16:20 53.33489 -2.82908 1208 ft 132 kts 84°
2026-04-29 16:20 53.33583 -2.81307 1737 ft 150 kts 86°
2026-04-29 16:20 53.33718 -2.79424 2234 ft 176 kts 79°
2026-04-29 16:21 53.34194 -2.77369 2825 ft 204 kts 63°
2026-04-29 16:21 53.35168 -2.75396 3474 ft 237 kts 46°
2026-04-29 16:21 53.36666 -2.73950 3940 ft 260 kts 25°
2026-04-29 16:21 53.38523 -2.73675 4599 ft 278 kts 357°
2026-04-29 16:22 53.40425 -2.74610 5679 ft 289 kts 343°
2026-04-29 16:22 53.42367 -2.75519 6779 ft 291 kts 348°
2026-04-29 16:22 53.44197 -2.77083 7763 ft 303 kts 322°
2026-04-29 16:22 53.45518 -2.79876 8743 ft 311 kts 294°
2026-04-29 16:23 53.46012 -2.83344 9741 ft 312 kts 267°
2026-04-29 16:23 53.45610 -2.86900 10616 ft 315 kts 246°
2026-04-29 16:23 53.44787 -2.90457 11003 ft 337 kts 243°
2026-04-29 16:23 53.43889 -2.94133 11685 ft 348 kts 243°
2026-04-29 16:24 53.42954 -2.97924 12517 ft 354 kts 243°
2026-04-29 16:24 53.42008 -3.01776 13371 ft 360 kts 243°
2026-04-29 16:24 53.41192 -3.05803 14169 ft 371 kts 254°
2026-04-29 16:24 53.40974 -3.10161 14899 ft 381 kts 270°
2026-04-29 16:25 53.41437 -3.14518 15656 ft 388 kts 286°
2026-04-29 16:25 53.42557 -3.18666 16143 ft 394 kts 302°
2026-04-29 16:25 53.44288 -3.22217 16296 ft 392 kts 316°
2026-04-29 16:25 53.46190 -3.25406 16325 ft 383 kts 316°
2026-04-29 16:26 53.48066 -3.28562 16325 ft 380 kts 316°
2026-04-29 16:26 53.49935 -3.31731 16321 ft 380 kts 316°
2026-04-29 16:26 53.51769 -3.34863 16325 ft 380 kts 316°
2026-04-29 16:26 53.53618 -3.38037 16334 ft 380 kts 316°
2026-04-29 16:27 53.55467 -3.41221 16334 ft 380 kts 316°
2026-04-29 16:27 53.57309 -3.44412 16333 ft 380 kts 314°
2026-04-29 16:27 53.58940 -3.47916 16327 ft 381 kts 306°
2026-04-29 16:27 53.60447 -3.51511 16326 ft 381 kts 306°
2026-04-29 16:28 53.61982 -3.55164 16323 ft 381 kts 306°
2026-04-29 16:28 53.63517 -3.58812 16322 ft 381 kts 306°
2026-04-29 16:28 53.65050 -3.62460 16322 ft 381 kts 306°
2026-04-29 16:28 53.66584 -3.66111 16336 ft 381 kts 305°
2026-04-29 16:29 53.68117 -3.69761 16327 ft 381 kts 305°
2026-04-29 16:29 53.69628 -3.73368 16320 ft 381 kts 306°
2026-04-29 16:29 53.71158 -3.77037 16318 ft 382 kts 306°
2026-04-29 16:29 53.72702 -3.80752 15770 ft 390 kts 305°
2026-04-29 16:30 53.74259 -3.84501 15243 ft 389 kts 305°
2026-04-29 16:30 53.75808 -3.88233 14761 ft 386 kts 305°
2026-04-29 16:30 53.77337 -3.91924 14316 ft 383 kts 305°
2026-04-29 16:30 53.78860 -3.95603 13901 ft 378 kts 305°
2026-04-29 16:31 53.80348 -3.99202 13394 ft 375 kts 305°
2026-04-29 16:31 53.81834 -4.02798 12850 ft 373 kts 305°
2026-04-29 16:31 53.83306 -4.06369 12475 ft 366 kts 305°
2026-04-29 16:31 53.84762 -4.09914 11958 ft 364 kts 305°
2026-04-29 16:32 53.86192 -4.13394 11529 ft 358 kts 305°
2026-04-29 16:32 53.87615 -4.16851 11077 ft 355 kts 305°
2026-04-29 16:32 53.89021 -4.20269 10577 ft 353 kts 305°
2026-04-29 16:32 53.90384 -4.23597 10383 ft 341 kts 305°
2026-04-29 16:33 53.92990 -4.29991 9987 ft 320 kts 305°
2026-04-29 16:33 53.94182 -4.33157 9667 ft 315 kts 294°
2026-04-29 16:33 53.94803 -4.36667 9321 ft 309 kts 281°
2026-04-29 16:34 53.95233 -4.40236 8921 ft 307 kts 279°
2026-04-29 16:34 53.95639 -4.43779 8532 ft 305 kts 279°
2026-04-29 16:34 53.96036 -4.47295 8133 ft 303 kts 279°
2026-04-29 16:34 53.96419 -4.50766 7738 ft 301 kts 279°
2026-04-29 16:35 53.96798 -4.54242 7358 ft 298 kts 279°
2026-04-29 16:35 53.97164 -4.57651 7090 ft 291 kts 279°
2026-04-29 16:35 53.97360 -4.61057 6731 ft 287 kts 271°
2026-04-29 16:35 53.97402 -4.64425 6336 ft 281 kts 269°
2026-04-29 16:36 53.97436 -4.67683 5954 ft 271 kts 269°
2026-04-29 16:36 53.97478 -4.70829 5575 ft 262 kts 269°
2026-04-29 16:36 53.97527 -4.73871 5208 ft 254 kts 269°
2026-04-29 16:36 53.97587 -4.76835 4821 ft 248 kts 269°
2026-04-29 16:37 53.97652 -4.79697 4431 ft 243 kts 269°
2026-04-29 16:37 53.97722 -4.82532 4046 ft 238 kts 269°
2026-04-29 16:37 53.97895 -4.85353 3529 ft 243 kts 288°
2026-04-29 16:37 53.98405 -4.87046 3212 ft 246 kts 311°
2026-04-29 16:38 54.00140 -4.89634 2535 ft 253 kts 329°
2026-04-29 16:38 54.01618 -4.91267 2057 ft 249 kts 347°
2026-04-29 16:38 54.03211 -4.91627 1992 ft 217 kts 15°
2026-04-29 16:38 54.04554 -4.90905 2003 ft 193 kts 38°
2026-04-29 16:39 54.05546 -4.89488 2012 ft 183 kts 58°
2026-04-29 16:39 54.06141 -4.87660 2016 ft 177 kts 76°
2026-04-29 16:39 54.06366 -4.85661 2013 ft 166 kts 85°
2026-04-29 16:39 54.06529 -4.83802 2010 ft 152 kts 85°
2026-04-29 16:40 54.06671 -4.82116 2036 ft 139 kts 84°
2026-04-29 16:40 54.06800 -4.80525 2018 ft 133 kts 85°
2026-04-29 16:40 54.06925 -4.78969 2006 ft 132 kts 85°
2026-04-29 16:40 54.07048 -4.77427 1896 ft 134 kts 84°
2026-04-29 16:41 54.07172 -4.75868 1735 ft 131 kts 84°
2026-04-29 16:41 54.07291 -4.74389 1552 ft 119 kts 84°
2026-04-29 16:41 54.07399 -4.73025 1371 ft 114 kts 84°
2026-04-29 16:41 54.07504 -4.71701 1196 ft 111 kts 84°
2026-04-29 16:42 54.07477 -4.70393 1001 ft 110 kts 94°
2026-04-29 16:42 54.07522 -4.69074 844 ft 114 kts 83°
2026-04-29 16:42 54.07649 -4.67747 670 ft 117 kts 80°
2026-04-29 16:42 54.07827 -4.66395 431 ft 115 kts 80°
2026-04-29 16:43 54.07991 -4.65075 250 ft 116 kts 78°
2026-04-29 16:43 54.08158 -4.63715 111 ft 117 kts 78°
2026-04-29 16:43 54.08319 -4.62467 44 ft 93 kts 78°
2026-04-29 16:43 54.08421 -4.61641 42 ft 40 kts 78°
2026-04-29 16:44 54.08499 -4.61439 42 ft 17 kts 347°
2026-04-29 16:44 54.08538 -4.61608 42 ft 17 kts 275°
2026-04-29 16:44 54.08551 -4.61813 40 ft 18 kts 272°
2026-04-29 16:44 54.08532 -4.62045 47 ft 22 kts 258°
2026-04-29 16:45 54.08498 -4.62325 51 ft 26 kts 257°
2026-04-29 16:45 54.08457 -4.62645 45 ft 29 kts 258°
2026-04-29 16:45 54.08424 -4.62918 43 ft 8 kts 257°
2026-04-29 16:45 54.08410 -4.63022 43 ft 10 kts 257°
2026-04-29 16:46 54.08400 -4.63156 43 ft 13 kts 278°
2026-04-29 16:46 54.08437 -4.63302 44 ft 14 kts 297°
2026-04-29 16:46 54.08503 -4.63338 44 ft 10 kts 21°
2026-04-29 16:46 54.08543 -4.63363 45 ft 7 kts 322°
2026-04-29 16:47 54.08580 -4.63332 44 ft 7 kts 47°
2026-04-29 16:47 54.08589 -4.63316 46 ft 0 kts 45°
2026-04-29 17:05 54.08585 -4.63324 46 ft 4 kts 45°
2026-04-29 17:05 54.08567 -4.63357 45 ft 4 kts 57°
2026-04-29 17:05 54.08559 -4.63392 46 ft 4 kts 119°
2026-04-29 17:06 54.08565 -4.63405 46 ft 1 kts 134°
2026-04-29 17:06 54.08565 -4.63406 43 ft 0 kts 134°